CAPE
0 0 0 0 0 0 0 0 0 0 0 0 0 0 0 0 0 0 0 0 0 0 0 0 0 0 0 0 0 0 1 2 2 4 3 3 4 5
0 0 0 0 0 0 0 0 0 0 0 0 0 0 0 0 0 0 0 0 0 0 0 0 0 0 0 0 0 0 0 2 2 4 5 5 6 6
0 0 0 0 0 0 0 0 0 0 0 0 0 0 0 0 0 0 0 0 0 0 0 0 0 0 0 0 0 0 0 2 3 4 4 5 6 6
0 0 0 0 0 0 0 0 0 0 1 0 0 0 0 0 0 0 0 0 0 0 0 0 0 0 0 0 0 1 2 2 5 5 4 6 4 4
0 0 0 0 0 0 0 0 0 0 0 0 0 0 0 0 0 0 0 0 0 0 0 0 0 0 0 0 0 1 3 3 5 5 3 6 4 3
0 0 0 0 0 0 0 0 0 0 0 0 0 0 0 0 1 2 0 0 0 0 0 0 0 0 0 0 0 1 3 4 5 4 3 5 3 3
0 0 0 0 0 0 0 0 1 0 1 2 1 0 0 0 0 0 1 0 1 1 0 0 0 0 0 0 0 0 2 5 3 2 1 3 3 6
0 0 0 0 0 0 2 2 2 4 6 4 5 8 0 0 0 0 0 1 7 0 0 0 0 0 0 0 0 0 0 1 2 1 1 2 4 8
0 0 0 0 2 1 1 1 2 3 8 7 6 4 1 0 2 10 14 8 0 0 0 0 0 0 0 0 1 1 1 2 0 0 1 3 5 6
0 0 0 0 0 2 3 2 1 0 3 4 1 0 0 0 0 2 2 5 11 3 1 0 0 0 0 0 5 8 0 0 0 1 3 4 8 10
0 0 0 1 3 12 7 8 7 4 4 10 12 20 27 21 20 7 2 10 7 0 0 0 0 0 0 0 0 0 0 0 0 0 3 6 6 0
0 0 0 1 12 15 17 17 10 0 4 2 1 2 15 9 9 13 2 0 0 1 0 0 0 0 0 0 0 0 0 0 5 2 3 3 5 0
1 0 0 1 10 17 29 25 21 18 14 13 15 4 0 0 1 2 0 0 0 0 0 0 0 0 0 0 0 0 0 0 0 0 4 3 4 4
2 3 0 1 11 12 16 12 29 20 8 0 3 5 3 0 0 1 2 1 1 0 0 1 0 0 0 0 0 0 0 0 0 0 0 0 0 2
0 1 8 10 13 7 5 5 12 0 0 1 0 0 0 1 0 0 0 0 0 0 0 0 0 0 0 0 0 0 0 0 0 0 0 0 0 0
0 0 6 11 4 1 1 0 0 0 0 1 0 0 0 0 0 0 0 0 0 0 0 0 0 0 0 0 0 0 0 0 0 0 0 0 0 0
11 4 2 0 3 0 1 0 0 0 0 2 1 0 0 1 0 0 0 0 0 0 0 0 0 0 0 0 0 0 0 0 0 0 0 0 0 0
7 9 0 0 0 1 0 0 0 0 0 1 0 0 0 0 0 1 0 0 0 0 0 0 0 0 0 0 0 0 0 0 0 0 0 0 0 0
6 0 0 0 0 0 0 0 0 0 0 1 0 1 1 0 0 0 0 0 0 0 0 0 0 0 0 0 0 0 0 0 0 0 0 0 0 0
0 0 0 2 5 0 1 1 0 0 0 0 0 0 1 0 0 0 0 0 0 0 0 0 0 0 0 0 0 0 0 0 0 0 0 0 0 0
0 1 0 0 0 0 0 1 0 0 1 0 0 0 0 0 0 0 0 0 0 0 0 0 0 0 0 0 0 0 0 0 0 0 0 0 0 0
0 0 0 0 0 0 0 0 0 1 0 0 0 0 0 0 0 0 0 0 0 0 0 0 0 0 0 0 0 0 0 0 0 1 1 0 0 0
0 1 0 0 0 0 0 0 0 0 0 0 0 0 0 0 0 0 0 0 0 0 0 0 0 0 0 0 0 0 0 0 0 0 0 0 0 0
CIN
-0 -0 -0 -0 -0 -0 -0 -0 -0 -0 -0 -0 -0 -0 -0 -0 -0 -0 -0 -0 -0 -0 -0 -0 -0 -0 -0 -0 -0 -0 -0 -0 -0 -0 -0 -0 -0 -0
-0 -0 -0 -0 -0 -0 -0 -0 -0 -0 -0 -0 -0 -0 -0 -0 -0 -0 -0 -0 -0 -0 -0 -0 -0 -0 -0 -0 -0 -0 -0 -0 -0 -0 -0 -0 -0 -0
-0 -0 -0 -0 -0 -0 -0 -0 -0 -0 -0 -0 -0 -0 -0 -0 -0 -0 -0 -0 -0 -0 -0 -0 -0 -0 -0 -0 -0 -0 -0 -0 -0 -0 -0 -0 -0 -0
-0 -0 -0 -0 -0 -0 -0 -0 -0 -0 -2 -0 -0 -0 -0 -0 -0 -0 -0 -0 -0 -0 -0 -0 -0 -0 -0 -0 -0 -0 -0 -0 -0 -0 -0 -1 -0 -0
-0 -0 -0 -0 -0 -0 -0 -0 -0 -0 -0 -0 -0 -0 -0 -0 -0 -0 -0 -0 -0 -0 -0 -0 -0 -0 -0 -0 -0 -0 -0 -0 -0 -0 -0 -0 -0 -0
-0 -0 -0 -0 -0 -0 -0 -0 -0 -0 -0 -0 -0 -0 -0 -0 -3 -5 -1 -0 -0 -0 -0 -0 -0 -0 -0 -0 -0 -0 -0 -0 -0 -0 -0 -0 -0 -0
-0 -0 -0 -0 -0 -0 -1 -0 -1 -1 -1 -1 -0 -0 -0 -0 -0 -1 -3 -6 -7 -13 -2 -0 -0 -0 -0 -0 -0 -0 -0 -0 -0 -0 -0 -0 -0 -0
-0 -0 -0 -0 -0 -1 -0 -0 -1 -0 -0 -0 -0 -0 -1 -0 -0 -0 -1 -1 -0 -0 -0 -0 -0 -0 -0 -0 -0 -0 -0 -0 -0 -0 -0 -0 -0 -0
-0 -0 -0 -0 -0 -1 -2 -6 -6 -5 -0 -1 -0 -1 -4 -1 -5 -1 -0 -1 -0 -0 -0 -0 -0 -0 -0 -0 -5 -3 -0 -0 -0 -0 -0 -0 -0 -0
-0 -0 -3 -1 -5 -7 -4 -8 -6 -12 -17 -12 -10 -3 -0 -0 -6 -6 -7 -2 -0 -0 -0 -0 -0 -0 -0 -0 -0 -0 -0 -0 -0 -0 -0 -0 -0 -0
-0 -0 -0 -2 -3 -0 -1 -1 -5 -6 -4 -0 -0 -0 -0 -0 -0 -0 -2 -1 -1 -3 -0 -0 -0 -0 -0 -0 -0 -0 -0 -0 -0 -0 -0 -0 -0 -2
-0 -0 -0 -0 -0 -0 -1 -1 -1 -4 -3 -6 -3 -10 -0 -0 -0 -1 -0 -0 -2 -0 -0 -0 -0 -0 -0 -0 -0 -0 -0 -0 -0 -0 -0 -1 -1 -1
-2 -0 -0 -0 -0 -0 -0 -0 -0 -0 -0 -0 -0 -3 -0 -0 -2 -0 -0 -0 -0 -0 -0 -0 -0 -0 -0 -0 -0 -0 -0 -0 -0 -1 -0 -0 -0 -1
-4 -3 -0 -0 -0 -0 -0 -0 -0 -0 -1 -0 -0 -0 -1 -0 -0 -0 -0 -1 -0 -0 -0 -0 -0 -0 -0 -0 -0 -0 -0 -0 -0 -0 -0 -0 -0 -0
-3 -0 -0 -0 -0 -0 -0 -0 -0 -0 -0 -0 -0 -0 -0 -0 -0 -0 -0 -0 -0 -0 -0 -0 -0 -0 -0 -0 -0 -0 -0 -0 -0 -0 -0 -0 -0 -0
-0 -0 -0 -0 -1 -1 -1 -4 -0 -0 -0 -0 -0 -0 -0 -0 -0 -0 -0 -0 -0 -0 -0 -0 -0 -0 -0 -0 -0 -0 -0 -0 -0 -0 -0 -0 -0 -0
-1 -0 -1 -2 -1 -0 -0 -0 -0 -0 -0 -0 -0 -0 -0 -0 -0 -0 -0 -0 -0 -0 -0 -0 -0 -0 -0 -0 -0 -0 -0 -0 -0 -0 -0 -0 -0 -0
-2 -0 -0 -0 -0 -0 -0 -0 -0 -0 -0 -0 -0 -0 -0 -0 -0 -0 -0 -0 -0 -0 -0 -0 -0 -0 -0 -0 -0 -0 -0 -0 -0 -0 -0 -0 -0 -0
-2 -0 -0 -0 -0 -0 -0 -0 -0 -0 -0 -0 -0 -0 -0 -0 -0 -0 -0 -0 -0 -0 -0 -0 -0 -0 -0 -0 -0 -0 -0 -0 -0 -0 -0 -0 -0 -0
-0 -0 -1 -1 -1 -0 -0 -0 -0 -0 -0 -0 -0 -0 -0 -0 -0 -0 -0 -0 -0 -0 -0 -0 -0 -0 -0 -0 -0 -0 -0 -0 -0 -0 -0 -0 -0 -0
-1 -5 -0 -1 -0 -0 -0 -0 -0 -0 -0 -0 -0 -0 -0 -0 -0 -0 -0 -0 -0 -0 -0 -0 -0 -0 -0 -0 -0 -0 -0 -0 -0 -0 -0 -0 -0 -0
-0 -0 -0 -0 -2 -0 -0 -0 -0 -0 -0 -0 -0 -0 -0 -0 -0 -0 -0 -0 -0 -0 -0 -0 -0 -0 -0 -0 -0 -0 -0 -0 -0 -0 -0 -0 -0 -0
-0 -2 -0 -0 -0 -0 -0 -0 -0 -0 -0 -0 -0 -0 -0 -0 -0 -0 -0 -0 -0 -0 -0 -0 -0 -0 -0 -0 -0 -0 -0 -0 -0 -0 -0 -0 -0 -0
Wind_Speed
34 33 33 33 32 32 32 32 36 44 44 36 36 33 32 29 30 30 29 29 31 32 33 34 35 34 33 32 32 32 31 30 31 31 30 31 31 31
35 36 36 35 35 34 33 33 33 38 46 40 41 40 40 38 35 33 32 32 32 34 36 37 37 36 35 34 33 33 32 31 31 32 31 32 32 31
37 38 38 37 38 36 36 35 36 36 45 44 41 42 44 43 41 38 36 35 35 35 36 38 37 37 36 35 35 34 34 32 32 32 32 32 32 32
39 39 40 39 38 38 38 38 38 37 42 50 44 44 43 43 44 44 41 39 38 37 37 38 38 39 38 37 36 35 34 33 32 32 32 31 31 30
40 41 41 40 41 40 39 40 39 39 40 45 49 44 44 43 46 46 46 44 41 41 40 40 41 40 39 38 37 35 34 33 32 32 31 30 29 29
40 41 41 41 41 41 40 39 40 42 43 46 48 48 46 44 43 47 49 44 45 41 42 42 41 40 39 38 37 36 35 33 31 31 30 29 28 28
42 41 41 40 40 40 40 41 41 43 44 46 48 48 48 48 48 47 50 49 46 42 43 42 40 39 37 36 36 35 33 31 31 30 29 28 28 28
43 42 41 40 39 40 41 42 43 44 46 47 49 51 50 48 48 48 49 50 53 40 43 44 38 38 35 34 33 31 30 29 29 28 28 28 29 30
41 41 40 40 41 41 41 42 41 41 41 45 49 48 50 48 48 49 48 49 49 44 40 43 35 37 33 31 29 28 29 27 26 28 29 29 31 30
39 40 40 42 41 42 43 45 43 42 42 42 45 47 46 45 44 45 46 46 45 43 36 41 35 35 30 27 27 28 28 28 30 31 30 31 29 27
41 40 42 43 43 45 47 47 47 47 44 43 43 44 45 44 45 45 45 43 45 40 32 32 30 28 27 28 27 30 29 28 29 28 28 27 25 21
43 43 43 45 46 46 46 47 49 48 47 45 43 41 41 40 41 40 39 39 39 37 26 24 22 22 26 27 29 27 27 28 25 22 22 23 22 24
46 47 46 46 47 47 45 44 45 46 45 42 43 40 40 37 36 34 30 29 27 27 18 15 18 18 21 24 23 24 26 26 25 23 23 25 26 26
47 46 46 46 46 46 44 42 41 43 39 41 40 38 35 37 32 31 25 22 17 13 11 11 19 16 20 25 28 25 26 24 22 23 23 24 25 25
45 45 46 46 45 42 40 38 38 37 36 38 37 33 33 30 30 24 21 16 13 11 8 12 12 13 19 24 25 25 24 22 22 23 24 24 23 22
44 43 44 44 42 39 38 34 31 32 31 36 28 31 29 27 20 12 16 12 11 10 9 8 9 15 22 25 26 26 24 25 21 21 23 23 22 23
46 44 42 41 40 40 35 27 30 30 30 32 25 26 27 25 11 8 6 8 6 2 8 16 19 19 20 22 27 25 24 25 24 26 24 26 26 27
42 40 41 37 40 38 39 32 29 30 27 29 22 17 13 9 7 10 5 16 20 19 25 8 13 18 22 24 18 25 23 23 22 22 22 25 28 26
37 37 34 33 46 30 35 29 27 30 24 24 21 17 17 10 17 19 20 18 20 10 5 5 7 16 24 28 21 10 18 20 21 24 22 23 27 27
34 29 23 31 33 37 22 27 25 22 30 20 17 14 11 14 18 20 17 17 12 7 6 6 7 6 10 22 21 18 13 18 20 24 24 25 28 29
39 26 36 28 28 28 22 22 21 30 27 24 16 15 10 13 16 16 14 10 7 7 8 6 5 6 11 16 22 23 24 25 24 23 23 25 27 26
33 41 30 26 24 19 6 21 27 25 21 25 21 16 13 12 9 8 8 9 8 8 11 12 14 17 22 21 23 23 23 23 21 24 27 23 22 24
37 33 27 23 17 19 21 27 26 27 25 20 17 12 11 10 9 9 9 9 10 11 11 14 15 17 20 21 23 24 22 24 25 25 26 26 29 33
Wind_Direction
318 318 316 316 315 313 312 310 309 308 309 313 314 317 312 305 302 302 304 304 304 305 305 305 306 305 304 304 305 305 304 305 305 305 305 305 305 304
320 318 317 316 315 314 312 310 307 304 303 309 309 309 308 305 302 300 298 300 301 302 303 302 302 302 301 301 301 302 302 301 302 302 302 302 302 301
320 319 317 317 315 314 312 310 307 306 302 305 307 307 305 304 303 301 299 297 298 298 300 300 299 298 298 298 298 298 298 297 298 299 299 299 300 299
321 320 318 318 316 315 313 310 308 307 304 303 306 306 304 305 304 303 300 298 296 296 296 297 297 296 295 295 295 295 295 294 293 295 296 296 297 297
321 320 319 317 315 315 313 312 310 309 308 305 305 307 306 305 304 303 301 300 297 297 296 296 296 295 293 292 291 291 291 291 290 291 293 292 293 294
322 320 319 317 315 314 314 313 312 309 308 306 305 306 306 307 305 303 302 302 300 299 297 296 296 294 291 289 289 289 289 287 287 288 289 289 290 289
321 320 319 318 316 316 314 313 313 310 309 307 305 306 306 306 304 305 301 302 301 300 298 296 295 294 292 290 289 289 287 284 284 285 286 286 286 286
320 320 320 320 319 317 315 313 312 310 309 308 306 305 305 305 305 303 302 300 299 299 298 295 294 293 292 291 288 287 285 284 283 283 283 282 282 282
322 322 321 321 320 317 315 314 312 311 309 308 306 305 305 306 305 303 301 298 296 299 298 295 295 291 294 291 287 285 285 283 282 282 280 280 280 280
324 323 321 320 320 318 315 313 311 312 310 307 306 305 305 305 303 302 301 300 299 297 294 292 294 289 293 291 289 285 284 281 279 279 278 280 281 280
325 324 323 320 320 318 315 314 312 312 312 308 307 306 305 305 304 304 301 300 298 297 293 290 295 290 292 289 288 284 279 279 280 280 282 281 282 282
324 324 324 321 320 319 317 315 313 313 313 311 310 309 309 307 307 304 301 299 299 298 293 287 293 291 293 291 284 279 279 280 281 283 284 285 285 285
323 323 323 322 320 318 317 316 315 316 315 314 314 312 312 311 310 312 308 304 299 295 293 286 292 290 289 292 287 280 278 278 278 282 285 287 286 285
323 323 323 323 322 320 320 319 318 319 318 317 317 316 316 317 318 317 313 309 299 284 293 287 291 290 290 281 277 281 277 279 283 286 289 290 288 286
324 324 323 323 323 322 322 321 321 324 323 320 318 318 321 323 324 321 324 323 313 301 286 290 297 299 290 281 279 280 283 287 289 290 289 290 289 289
326 326 325 324 324 324 324 323 325 328 327 323 324 322 325 325 329 337 332 333 322 311 307 295 304 292 286 276 278 281 283 283 297 296 293 289 288 284
326 327 327 327 327 326 326 330 330 331 329 328 328 328 326 322 333 340 353 354 352 349 308 289 288 286 285 287 279 284 288 290 292 286 286 281 280 278
328 328 328 329 328 325 323 329 332 333 333 333 334 337 331 336 340 339 3 185 195 195 210 322 302 290 290 288 300 291 297 294 291 285 285 281 274 275
330 329 330 330 309 330 329 334 335 334 339 262 256 244 236 209 198 189 190 180 194 140 68 8 335 306 279 263 303 325 306 294 286 277 281 279 272 271
333 332 332 333 330 325 335 335 337 337 276 259 244 234 203 188 181 185 168 169 138 8 19 7 357 349 328 287 296 305 319 295 287 275 276 276 271 266
307 334 329 334 334 335 339 340 343 275 269 263 237 226 171 159 164 157 145 117 81 32 10 19 42 21 343 319 284 277 269 262 274 279 281 278 271 272
332 323 334 336 338 343 322 344 270 265 255 267 251 217 162 132 86 58 70 91 42 36 1 347 317 285 248 231 245 265 266 270 281 274 268 286 289 277
329 330 337 340 344 257 334 271 267 271 265 245 228 244 113 81 13 4 6 24 20 5 3 334 313 303 295 286 249 256 238 251 279 282 279 279 275 263